Location: NovaLab Observatory
(42.8167°N, 71.2500°W)
Time: 14:54:28
(UTC-04:00)

Daily predictions for brighter satellites

Satellite Brightness Start Highest point End
(mag) Time Altitude Azimuth Time Altitude Azimuth Time Altitude Azimuth
CZ-4C R/B 3.9 18:42:08 10° WSW 18:47:05 33° NW 18:52:37 10° NNE
Meteor 1-24 Rocket 3.9 18:43:19 10° NNW 18:48:55 80° W 18:54:17 10° S
Cosmos 1953 2.7 18:52:30 10° SSE 18:56:15 41° E 19:00:01 10° NNE
Cosmos 1674 4.1 18:53:30 10° NNE 18:56:24 20° ENE 18:59:18 10° ESE
Helios 1B rocket 3.6 18:56:07 10° NE 18:59:19 22° E 19:02:30 10° SE
Cosmos 1743 Rocket 4.3 18:55:51 10° N 18:59:50 32° ENE 19:03:47 10° SE
ATLAS 5 CENTAUR R/B 2.1 18:55:28 10° SW 19:00:15 77° NW 19:05:30 10° NE
Cosmos 1470 4.1 19:00:40 10° SE 19:03:29 19° E 19:06:18 10° NE
Cosmos 1544 3.5 19:08:19 10° SSE 19:11:51 41° E 19:15:24 10° NNE
SAR-Lupe-4 3.5 19:08:50 10° SSE 19:12:23 83° ENE 19:15:59 10° NNW
Resurs 01 Rocket 2.0 19:12:09 10° SE 19:16:22 44° ENE 19:20:36 10° N
METEOR-M 4.2 19:11:39 10° SSE 19:16:52 57° ENE 19:22:07 10° N
COSMO-SKYMED 1 3.4 19:15:19 10° N 19:19:35 56° WNW 19:23:49 10° SSW
SL-8 R/B 3.7 19:17:04 10° WSW 19:21:51 81° SSE 19:26:10 13° ENE
NOSS 3-2 (A) 4.5 19:16:18 10° WSW 19:22:14 49° NW 19:28:46 10° NNE
SJ-6B 2.9 19:19:40 10° SSE 19:23:42 85° W 19:27:49 10° NNW
ALOS 3.0 19:20:26 10° SE 19:24:33 32° ENE 19:28:40 10° N
FengYun 1-2 T 4.5 19:19:30 10° SE 19:24:44 47° ENE 19:29:58 10° N
Cosmos 1076 Rocket 4.4 19:21:10 10° NNW 19:25:25 54° W 19:29:39 10° S
Cosmos 1484 Rocket 4.4 19:23:03 10° SSW 19:26:41 39° W 19:30:24 10° NNW
Nadezhda 4 Rocket 4.0 19:20:31 10° N 19:26:45 64° E 19:32:53 10° SSE
ASTEX 1 3.9 19:26:12 10° NNE 19:30:41 35° E 19:35:07 10° SSE
ATLAS CENTAUR R/B 4.0 19:26:18 10° SW 19:31:36 79° NW 19:49:20 10° NE
Cosmos 2151 3.9 19:29:24 10° NNE 19:33:01 26° ENE 19:34:34 21° ESE
SL-16 R/B 4.1 19:30:52 10° WSW 19:35:55 32° NW 19:41:00 10° N
GP-B 4.1 19:32:34 10° NNE 19:36:18 26° E 19:37:51 21° ESE
Meteor 1-29 3.3 19:33:29 10° NNE 19:36:51 43° E 19:40:11 10° S
Cosmos-2242 3.3 19:32:50 10° SSW 19:37:11 74° W 19:41:37 10° N
Cosmos 1092 Rocket 4.0 19:31:36 10° N 19:37:43 57° E 19:43:43 10° SSE
FENGYUN 3A 4.0 19:32:45 10° SE 19:37:49 45° ENE 19:42:57 10° N
Cosmos 839 Rocket 4.4 19:30:17 10° NNW 19:38:00 58° NE 19:43:03 17° SE
Cosmos 1758 4.2 19:37:37 10° SSW 19:41:37 54° W 19:45:40 10° N
Cosmos 2221 4.3 19:45:08 16° NE 19:45:08 16° NE 19:46:24 10° NE
CENTAUR R/B 2.5 19:38:45 10° SSW 19:44:40 63° ESE 19:51:22 10° NE
ISS -3.0 19:43:09 10° WSW 19:46:23 64° NNW 19:48:05 25° NE
Cosmos 2026 Rocket 4.4 19:41:51 10° N 19:47:30 38° ENE 19:51:17 20° SE
Cosmos 1655 Rocket 4.5 19:46:04 10° N 19:51:49 37° ENE 19:54:54 24° SE
Abrixas 3.2 19:49:17 10° W 19:52:12 47° NNW 19:53:12 32° NNE
Meteor 1-28 Rocket 4.4 19:49:02 10° N 19:52:35 44° WNW 19:56:07 10° SW
GPS 2-04 Rocket1 3.8 19:49:57 10° SW 19:52:51 25° S 19:53:27 24° SSE
Cosmos 2251 Rocket 4.0 19:48:45 10° SSE 19:53:29 36° ESE 19:58:16 10° NE
Cosmos 1634 Rocket 4.0 19:49:13 10° SSE 19:55:16 56° E 20:01:19 10° NNE
CZ-2D R/B 3.4 19:57:19 38° ESE 19:58:22 51° ENE 20:02:09 10° N
Cosmos 1328 3.8 19:56:55 10° N 20:00:50 53° E 20:01:42 43° ESE
Cosmos 1943 Rocket 2.7 19:56:00 10° NNW 20:01:16 40° ENE 20:02:50 33° E
Cosmos 1331 Rocket 4.3 19:56:26 10° N 20:01:34 47° ENE 20:03:18 34° ESE
SL-14 R/B 4.2 19:58:42 10° N 20:01:44 31° NE 20:01:44 31° NE
ERBS 3.2 20:02:41 10° NNW 20:05:53 37° NNE 20:05:53 37° NNE
H-2A R/B 2.7 20:06:03 48° SE 20:06:53 64° ENE 20:10:43 10° N
Cosmos 1500 Rocket 3.9 20:03:23 10° NNW 20:07:49 67° W 20:12:14 10° S
Cosmos 2195 Rocket 4.5 20:03:46 10° N 20:10:05 66° E 20:15:09 16° SSE
Cosmos 1842 Rocket 3.8 20:06:00 10° SSW 20:10:19 67° W 20:14:41 10° N
Helios 1A 3.7 20:06:20 10° S 20:10:27 54° W 20:14:36 10° NNW
Cosmos 2369 Rocket 2.3 20:07:03 10° NNW 20:12:43 78° WSW 20:16:53 19° SSE
Cosmos 1943 3.2 20:09:30 10° SSW 20:15:08 83° WNW 20:20:48 10° NNE
Spot 2 Rocket 4.5 20:11:52 10° S 20:16:41 47° W 20:21:34 10° NNW
Cosmos 2263 4.2 20:21:05 10° NNW 20:26:54 83° WSW 20:29:26 35° SSE
Cosmos 1733 4.2 20:23:10 10° SSW 20:26:55 47° WNW 20:30:40 10° N
Envisat 3.9 20:28:38 33° NE 20:28:38 33° NE 20:32:14 10° N
Cosmos 158 Rocket 4.2 20:23:17 10° SSW 20:28:07 62° WNW 20:32:59 10° NNE
USA 215 3.1 20:25:37 22° NE 20:30:11 78° SE 20:36:42 10° SW
Gbstr 26 Del rocket 3.5 20:26:32 10° WSW 20:31:04 69° NNW 20:32:55 40° NE
Helios 1B rocket 4.3 20:31:01 10° N 20:34:41 32° WNW 20:38:20 10° SW
SL-24 R/B - RUBIN 2 4.4 20:30:18 10° NW 20:37:00 84° WSW 20:38:57 48° SSE
ATLAS 5 CENTAUR R/B 4.5 20:42:35 10° WNW 20:45:55 17° NNW 20:49:27 10° NNE
Resurs 01 Rocket 4.3 20:49:58 10° SW 20:53:02 18° W 20:56:08 10° NW
ERS-1 Rocket 3.5 20:56:03 50° N 20:56:03 50° N 20:59:49 10° N
Cosmos 2058 3.9 20:52:33 10° NNW 20:55:45 44° NW 20:55:45 44° NW
Cosmos 2180 Rocket 4.3 21:00:27 78° S 21:00:54 87° E 21:07:05 10° N
UNK 4.4 20:42:11 10° WNW 21:01:02 68° NNE 21:02:05 59° ENE
Cosmos 1656 Rocket 4.3 20:56:10 10° NNW 21:00:08 43° NNE 21:00:08 43° NNE
ALOS 4.2 20:58:30 12° SSW 21:01:58 27° W 21:05:58 10° NW
Meteor 2-1 Rocket 4.4 20:58:08 15° SSW 21:03:01 72° W 21:08:56 10° N
Cosmos 2279 Rocket 4.3 21:09:23 16° SSW 21:14:19 62° W 21:20:30 10° N
CENTAUR R/B 4.1 21:30:14 10° W 21:35:51 32° NW 21:42:06 10° NNE
Cosmos 1943 Rocket 3.7 21:40:01 10° NW 21:44:23 30° W 21:44:23 30° W
USA 215 4.3 22:13:01 41° NNW 22:13:01 41° NNW 22:18:52 10° W
